Wind_Speed
59 59 59 60 60 60 61 61 60 60 58 57 56 55 55 54 54 54 54 54 54 54 54 53 53 53 52 52 53 53 52 51 50 50 49 48 47 47 47 47 47 47 46 46 45 44 44 43 42 42 42 42 42 42 42 43 43 43 43 43 43 43 43 43 43 43 43 42 42 42 42 42 42 42 42 42 42 42 42 42 42 43 44 46 47
61 61 61 61 61 61 61 61 61 60 59 57 56 55 55 54 54 55 55 56 56 56 55 55 54 54 53 54 54 54 54 53 52 52 51 50 49 48 48 47 48 48 48 47 46 45 45 44 43 43 43 43 43 43 43 43 43 44 44 44 44 44 44 44 44 44 43 43 42 42 42 42 42 42 42 42 43 43 44 44 45 46 46 48 49
63 63 63 62 62 62 62 62 61 61 60 58 57 56 55 55 55 56 56 57 58 58 58 57 56 56 55 55 55 55 55 55 54 53 52 51 50 49 49 48 48 48 48 48 47 46 46 45 45 44 44 44 43 43 43 44 44 44 44 44 44 44 44 44 43 43 44 43 43 43 42 42 42 42 43 43 43 44 45 46 47 48 49 50 52
65 64 64 64 64 63 63 63 62 61 61 60 59 57 57 57 57 57 58 59 59 59 59 59 58 57 57 57 57 57 57 57 56 55 54 52 51 50 50 49 49 49 48 48 48 47 46 46 45 45 45 45 44 44 44 44 44 45 45 45 44 44 44 43 43 43 43 43 43 43 43 43 43 43 43 44 45 46 47 48 50 51 52 53 55
66 66 65 65 64 64 64 63 63 63 62 61 60 59 59 59 59 59 60 60 60 60 60 59 59 59 59 59 59 59 59 58 57 57 56 54 53 51 51 51 50 50 49 49 49 48 47 47 46 46 46 46 45 45 45 45 45 45 45 45 45 44 44 43 43 43 43 43 43 43 44 44 44 44 44 45 46 48 49 51 52 53 54 55 57
66 66 66 65 65 65 64 64 64 63 63 62 61 61 60 61 61 61 61 61 61 60 60 60 60 60 60 60 59 59 59 59 58 58 57 56 54 53 52 52 51 51 50 50 50 49 48 48 47 47 47 46 46 46 46 45 45 45 45 45 44 44 44 43 43 43 43 43 43 43 44 44 45 45 45 46 46 48 49 51 52 53 55 56 58
66 66 66 66 66 65 65 64 64 64 64 63 62 62 62 62 62 62 62 62 62 62 61 61 61 61 61 61 60 60 59 59 58 58 57 57 56 55 53 53 52 52 52 51 50 50 49 49 48 48 47 47 46 46 46 46 46 45 45 44 44 43 43 43 43 43 43 43 43 44 44 44 45 45 46 46 47 47 48 49 51 53 55 56 56
66 66 66 66 66 66 65 65 65 64 64 63 63 63 63 64 64 64 64 64 64 64 63 62 62 62 62 62 61 60 60 59 59 58 58 58 57 56 55 54 53 53 52 52 51 51 50 49 48 48 48 47 47 46 46 46 45 45 44 43 43 43 43 43 43 43 43 43 43 43 44 44 44 45 45 46 47 47 48 48 50 52 54 55 55
67 66 66 66 66 66 66 65 65 65 65 65 65 65 65 65 65 66 66 66 66 65 65 64 63 63 63 63 62 61 61 60 59 58 58 57 57 57 56 55 54 53 53 52 51 51 50 50 49 48 48 48 47 47 46 46 45 44 43 43 42 42 42 43 43 42 42 42 42 43 43 43 43 44 45 46 46 47 47 48 49 51 53 54 54
67 66 65 66 67 67 67 66 66 66 66 66 66 66 66 66 67 68 68 68 68 67 66 65 65 64 64 64 63 62 61 60 59 58 58 57 57 57 57 56 55 54 53 52 52 51 50 50 49 48 48 48 48 47 46 45 44 43 43 42 42 42 41 42 42 42 42 41 41 41 42 43 43 43 44 45 46 46 46 47 50 52 52 52 53
69 66 65 66 67 68 67 67 67 67 67 67 67 67 68 68 69 69 69 70 70 69 68 67 66 66 65 65 64 63 62 61 60 59 58 57 57 57 57 57 56 55 54 52 51 51 50 50 49 48 48 48 48 47 46 45 43 42 42 41 41 41 40 40 40 41 41 41 41 41 41 42 42 43 43 44 45 46 47 48 50 51 52 51 51
70 68 66 67 68 68 68 68 68 68 68 68 68 68 69 70 70 71 71 71 71 70 70 69 68 68 67 66 65 64 63 62 61 59 58 57 57 57 57 57 56 55 54 52 51 50 50 50 50 49 48 47 47 47 46 45 43 42 41 41 41 40 40 40 40 40 41 41 42 41 41 42 43 43 43 44 45 46 47 48 51 52 52 51 52
71 69 67 67 68 68 68 68 69 69 69 69 69 70 70 71 72 72 72 72 72 71 71 70 70 69 68 67 66 65 64 62 61 60 59 58 58 57 57 57 56 55 54 53 52 51 51 51 51 50 49 48 47 47 46 45 44 43 42 41 41 40 40 40 40 41 41 41 42 42 42 42 43 43 44 44 45 46 46 49 52 53 52 52 53
72 71 69 68 68 68 68 69 69 69 70 70 70 71 71 72 73 73 73 73 72 72 71 71 71 70 70 69 68 66 65 63 62 60 59 59 58 58 57 56 55 55 54 53 53 53 53 53 52 51 50 49 49 48 47 46 45 44 44 43 42 41 40 40 40 41 42 42 43 43 43 43 43 43 44 44 45 46 47 49 52 53 53 54 55
73 72 70 68 68 68 68 69 69 70 70 71 71 72 73 74 74 74 73 73 72 72 72 72 72 72 71 70 69 67 66 64 62 61 60 59 58 58 57 55 54 54 54 54 54 54 54 54 53 53 52 52 51 50 48 46 46 46 46 46 45 43 42 41 41 42 43 43 43 43 43 43 43 43 44 45 46 46 48 50 52 53 52 53 56
75 73 70 69 68 68 68 69 69 70 71 72 73 74 74 75 75 74 73 73 73 73 73 73 73 73 72 71 70 68 67 65 63 61 60 59 59 58 57 56 54 53 54 55 55 55 55 55 54 54 53 53 53 51 49 48 47 47 48 48 47 46 44 43 43 44 44 44 44 44 44 44 44 44 44 45 45 46 48 50 52 53 52 53 55
76 74 71 69 68 68 69 69 70 71 72 73 74 75 76 76 76 75 74 74 74 74 74 74 74 74 73 72 71 69 67 66 64 62 60 60 59 57 56 55 54 54 54 56 56 56 56 55 54 54 53 54 54 52 51 51 50 50 49 49 49 48 46 45 45 46 46 46 45 45 45 45 45 45 45 45 45 47 48 50 52 52 52 53 54
76 74 71 70 69 69 69 70 71 72 73 74 75 76 77 77 76 76 75 75 75 75 75 75 75 74 73 72 71 69 68 66 65 63 61 60 58 57 56 55 54 54 55 56 57 57 56 55 54 54 54 54 54 54 53 53 52 52 52 50 50 50 48 47 47 48 47 46 46 46 46 46 46 45 45 45 46 47 48 50 52 52 53 54 54
77 74 72 71 70 70 71 71 72 73 74 76 77 77 77 77 78 77 77 76 76 76 76 75 75 75 73 72 71 69 67 66 65 63 61 60 58 57 55 54 54 54 55 56 57 57 57 56 55 55 55 55 55 55 54 54 53 53 53 52 51 51 50 49 49 49 48 47 47 47 46 46 46 45 45 45 46 47 49 50 51 51 52 54 55
77 74 73 72 72 72 72 73 74 75 76 77 78 78 78 79 79 79 78 78 77 77 77 76 75 74 73 71 70 68 66 65 64 63 61 59 58 57 55 54 53 53 54 55 57 58 59 58 58 57 56 56 56 56 56 55 54 54 54 53 53 53 52 50 50 50 50 48 47 47 47 47 47 46 45 46 47 48 49 50 50 51 52 53 55
77 75 74 73 73 73 74 75 76 77 78 78 79 79 80 80 80 80 79 79 78 78 77 76 75 73 72 71 69 67 65 64 62 61 60 59 57 56 55 53 52 52 53 54 56 58 59 60 59 59 58 58 58 58 57 56 56 55 55 54 54 53 52 51 51 51 50 49 48 48 48 48 47 47 46 47 48 48 49 49 49 51 52 53 54
78 76 75 74 75 75 76 77 78 79 79 79 80 80 81 81 81 81 80 80 79 78 77 76 74 73 71 70 69 67 65 63 61 60 59 58 57 56 55 53 52 51 52 53 55 56 57 58 59 59 59 59 59 59 59 58 57 57 56 56 55 54 52 51 51 51 50 49 48 49 48 47 47 47 47 48 48 48 48 48 49 51 52 52 53
78 77 76 76 76 77 78 79 80 81 81 81 81 82 82 83 82 82 81 81 80 78 77 75 73 72 70 69 68 66 64 62 60 59 57 56 55 55 55 54 53 53 52 53 54 55 56 57 58 58 59 59 60 59 59 59 59 58 57 56 56 54 53 51 50 50 49 48 48 48 48 47 47 48 48 49 49 48 48 48 49 51 51 52 53
78 77 77 78 78 79 80 81 82 82 83 83 84 84 84 83 83 83 82 81 79 78 76 74 72 70 69 67 66 65 63 62 60 59 57 56 55 54 54 54 54 54 53 53 54 55 56 57 58 59 59 59 59 58 58 57 57 56 54 53 53 52 51 50 50 49 48 48 48 48 48 48 48 48 49 49 48 47 47 48 49 50 50 51 52
79 79 79 79 80 81 83 83 84 84 85 85 85 85 85 84 83 82 81 80 78 76 75 73 71 69 68 66 64 63 63 61 60 59 58 57 55 54 54 54 53 53 53 52 53 54 55 56 57 58 57 57 56 55 55 54 53 52 51 51 50 49 49 49 49 48 48 48 48 48 48 48 48 48 49 48 47 47 46 47 49 50 49 50 50
80 80 81 81 82 83 84 85 86 87 87 87 87 86 85 84 83 82 80 79 77 75 73 72 70 68 67 65 64 63 62 61 60 59 58 57 56 55 54 54 53 53 53 52 53 53 53 54 55 55 55 56 56 56 55 54 54 53 53 52 52 51 51 50 50 49 49 49 49 48 49 49 49 49 48 47 47 46 45 47 49 49 48 49 48
81 81 82 83 84 85 85 86 87 89 89 88 88 87 85 84 82 80 79 77 75 74 72 70 69 67 66 65 64 62 61 61 60 59 58 57 56 55 55 54 54 54 54 54 54 54 54 54 54 55 55 55 56 56 56 56 56 56 56 56 55 55 54 53 53 53 52 52 51 50 50 50 50 49 48 47 46 45 45 46 47 47 47 47 44
82 83 84 85 86 86 87 88 89 90 89 89 87 86 84 82 81 80 78 76 74 72 71 69 68 67 65 64 63 62 61 60 59 58 57 56 55 54 54 54 54 54 54 54 54 55 56 57 57 58 58 58 58 58 58 59 59 58 59 59 58 58 58 57 56 56 55 54 53 52 51 51 50 49 48 47 46 45 44 45 45 45 45 44 41
84 85 86 86 87 88 89 90 90 90 89 88 86 85 83 81 79 78 77 75 73 71 70 68 67 66 64 63 62 60 59 58 58 57 56 55 54 54 54 54 55 55 55 55 55 55 57 58 59 60 61 61 61 62 62 62 62 62 62 62 61 61 61 60 59 58 57 56 54 53 51 50 49 48 47 46 45 44 44 45 44 43 43 40 38
86 87 87 88 89 91 92 92 91 89 87 86 84 84 82 81 78 76 75 74 72 70 69 67 66 65 63 62 61 59 58 57 57 57 57 57 56 57 57 57 58 58 58 58 57 58 59 60 60 61 62 62 63 63 63 63 64 64 64 64 64 64 63 62 62 61 59 56 54 52 50 49 48 47 46 45 44 43 44 44 42 41 39 37 36
87 88 89 90 92 92 93 92 90 88 86 84 82 81 80 80 78 75 74 72 71 70 68 67 65 64 62 61 60 59 59 58 58 58 58 59 59 59 59 59 59 59 59 59 59 59 59 60 60 61 61 61 62 62 62 62 63 63 63 64 64 63 63 62 62 60 58 55 52 50 49 48 47 45 44 43 42 42 43 42 40 38 36 34 32
88 90 91 93 93 93 92 91 89 87 85 83 81 79 78 77 76 75 73 71 70 69 67 66 65 64 62 61 60 60 60 60 60 60 59 59 59 58 58 57 56 55 55 54 53 53 52 53 53 53 54 54 54 54 54 55 56 57 57 58 58 59 58 58 57 56 54 52 50 48 47 46 44 43 42 40 40 41 42 41 38 35 33 31 27
90 92 93 94 94 93 91 89 87 85 83 81 79 78 76 74 73 72 72 71 70 68 67 66 65 64 63 62 61 61 61 60 60 59 58 56 54 52 50 48 47 46 45 45 45 45 45 45 46 46 47 47 48 48 48 48 49 49 50 50 50 51 51 50 50 50 49 48 47 46 45 43 42 40 39 39 39 40 40 38 34 32 30 28 23
93 94 94 94 93 92 90 87 85 83 81 79 77 76 74 73 71 70 70 69 69 68 68 66 65 64 64 63 62 61 60 58 56 54 50 47 44 42 41 41 41 42 42 43 43 44 44 44 45 45 46 46 46 47 46 46 46 46 46 46 46 45 45 45 44 44 44 43 43 43 43 41 39 38 38 38 38 37 36 34 31 30 27 23 19
95 95 95 94 92 90 88 85 83 81 79 78 76 74 73 72 71 70 68 67 67 67 67 67 66 65 64 63 61 58 55 51 48 44 42 40 40 40 40 41 42 43 43 43 44 44 45 45 45 46 46 46 46 46 46 46 46 45 45 44 43 42 41 41 40 40 40 39 39 40 39 38 37 36 36 36 35 34 32 29 28 26 23 19 16
96 96 95 93 91 88 86 83 81 79 77 76 74 73 72 71 70 69 68 67 66 66 66 66 66 64 62 58 55 51 46 42 40 39 39 40 40 41 41 42 42 43 44 44 44 44 45 45 45 45 46 46 46 46 46 45 44 44 42 41 40 39 38 38 37 37 36 36 36 36 36 35 35 34 33 33 32 30 28 26 24 22 18 15 13
96 95 93 91 88 86 83 81 79 77 76 74 73 72 71 70 69 68 68 67 67 66 65 64 62 59 56 51 46 43 40 39 39 39 40 41 41 41 41 42 43 43 44 44 44 44 45 45 45 44 45 45 45 45 44 43 42 40 39 38 37 37 36 35 34 33 33 33 34 34 34 33 31 30 30 29 28 26 24 22 20 16 14 13 11
96 94 91 88 85 83 80 79 77 76 75 73 72 71 70 69 69 68 68 67 66 64 62 59 56 51 47 43 40 39 40 40 41 41 41 41 41 41 42 42 43 43 44 44 44 45 45 45 45 44 44 44 44 43 41 39 38 37 36 36 35 34 33 32 32 31 31 31 31 31 30 28 27 27 27 26 24 22 20 18 16 13 11 10 9
95 92 89 85 83 80 78 77 76 75 74 72 71 70 69 69 69 68 67 66 63 60 57 52 48 44 41 39 39 40 40 41 41 41 41 41 42 42 43 43 43 44 44 44 44 44 45 45 44 43 42 41 40 38 36 35 34 34 33 33 32 31 30 29 29 28 28 28 27 26 25 25 25 25 24 22 20 18 16 14 13 11 10 10 10
92 89 86 83 80 79 77 76 75 74 72 71 70 70 69 69 68 66 64 62 58 54 50 45 41 39 39 39 40 41 41 41 41 42 42 42 42 43 43 43 43 43 43 43 44 44 44 43 41 40 38 36 35 33 33 32 32 31 30 30 29 28 27 26 26 26 26 26 25 24 24 24 23 21 19 17 16 15 13 13 12 10 11 12 10
89 86 83 81 79 78 77 75 74 73 72 71 70 69 68 67 65 62 59 56 52 47 43 40 39 38 39 40 41 41 41 41 42 43 43 43 43 43 43 43 42 43 43 43 43 42 41 38 36 33 32 31 31 31 31 30 29 28 27 26 26 25 24 23 24 25 25 25 24 24 23 21 19 17 15 14 13 12 13 12 12 13 13 11 8
86 83 81 80 78 77 76 74 73 72 71 70 69 67 65 63 60 56 53 49 45 42 40 39 39 40 40 41 41 42 42 42 42 43 43 43 43 42 42 42 42 42 42 42 40 38 35 31 29 28 28 28 28 28 27 26 25 24 23 23 22 21 21 20 21 22 22 22 21 20 18 16 15 14 13 12 13 13 13 14 15 15 13 10 7
84 82 80 79 77 76 74 73 72 71 70 68 66 63 60 57 53 50 47 44 41 40 39 40 41 41 42 42 42 42 42 43 43 43 43 43 42 42 41 41 41 41 40 38 34 31 28 25 25 25 25 25 25 24 23 22 21 20 19 18 18 17 17 17 18 18 18 18 17 16 15 14 13 12 12 14 15 15 16 18 18 15 12 9 6
82 81 80 78 76 75 73 71 70 68 66 64 61 57 54 51 48 45 43 41 40 40 40 41 42 42 43 43 43 43 43 43 42 42 42 42 41 41 41 40 39 38 34 30 26 24 23 22 22 21 21 20 20 19 19 18 16 15 14 14 14 14 14 14 14 15 15 16 16 15 14 13 13 14 16 17 17 18 19 20 18 14 11 8 4
81 80 78 76 74 73 71 68 66 64 61 58 54 51 48 46 44 43 42 41 41 42 42 42 43 43 43 43 43 43 43 42 42 41 41 40 40 40 39 37 35 31 27 23 21 20 20 19 18 17 16 16 16 15 14 13 12 11 11 11 11 12 12 13 15 15 16 16 16 15 14 15 17 19 19 19 20 22 22 20 17 13 9 6 3
79 77 75 73 71 69 66 64 61 58 54 51 48 46 45 44 43 42 42 42 43 43 44 44 44 44 44 44 43 43 42 41 41 40 39 39 39 38 36 32 28 23 20 19 18 18 17 15 13 12 12 12 11 10 9 8 7 6 7 8 10 12 14 15 16 16 17 16 16 16 18 20 21 21 21 22 23 23 21 19 16 12 8 6 4
75 72 70 68 65 63 60 58 54 52 49 47 45 44 44 44 43 44 44 44 45 45 45 45 45 44 44 43 43 42 41 40 39 38 38 37 36 33 30 25 20 18 16 16 15 14 12 11 10 9 9 8 8 6 5 3 3 3 6 8 11 14 15 16 17 17 18 18 19 21 23 23 23 23 24 25 25 23 21 18 14 9 7 6 4
70 67 65 62 60 57 55 52 50 48 46 45 45 44 45 45 45 46 46 46 46 46 46 45 45 44 43 42 41 40 38 37 37 37 36 34 31 27 22 18 15 14 14 13 12 10 9 8 7 7 6 5 4 3 2 1 3 5 8 10 13 15 17 18 19 20 21 23 25 25 25 25 26 26 27 26 25 23 20 16 11 8 5 4 4
65 62 60 58 55 53 51 49 48 47 46 46 46 47 47 47 47 47 47 47 46 46 45 44 44 43 42 40 38 37 36 35 35 34 31 28 24 20 16 14 13 12 11 10 9 8 7 6 5 4 3 3 2 1 3 5 7 9 12 14 17 19 20 22 23 25 26 27 27 27 27 28 28 28 27 26 24 21 17 13 9 6 4 4 4
61 58 57 55 53 51 50 49 48 47 47 47 48 48 48 47 47 46 46 45 45 44 43 43 41 40 39 37 35 34 33 33 32 29 25 22 18 14 12 11 10 9 8 7 7 6 5 4 3 2 1 1 2 4 6 9 11 14 16 19 21 22 24 26 27 28 29 28 28 29 29 30 29 28 27 25 22 18 14 11 8 5 4 5 5
58 56 54 53 52 51 50 49 48 48 47 47 47 46 46 45 45 44 44 43 43 42 41 40 38 36 35 33 32 31 31 29 26 22 19 15 12 10 9 9 8 7 6 5 5 4 3 2 1 1 2 4 5 8 10 13 15 17 19 22 24 26 28 29 30 30 30 30 30 31 31 31 29 28 26 22 19 15 12 9 7 5 5 6 6
Wind_Direction
324 324 325 325 325 324 324 323 323 322 320 319 318 317 317 316 316 315 315 315 314 313 311 310 310 310 310 310 311 311 311 310 310 310 310 309 308 307 307 307 306 307 307 306 306 305 304 304 303 302 301 301 300 300 300 300 300 299 299 298 298 297 298 298 298 298 297 297 296 296 296 295 295 294 294 293 292 292 291 290 290 290 289 289 289
323 323 323 323 323 323 322 322 321 320 319 318 317 316 316 315 315 314 314 314 313 312 311 310 309 309 309 309 309 309 309 309 309 308 308 307 306 306 306 305 305 305 305 304 304 304 303 303 302 301 300 300 299 299 299 299 299 298 298 297 297 297 297 297 297 297 296 296 295 295 294 294 293 293 293 293 292 292 291 290 290 290 290 290 290
323 323 322 322 321 321 321 320 320 319 318 317 316 315 315 314 314 313 313 313 312 311 310 309 308 308 308 308 308 308 308 308 307 306 305 305 305 304 304 304 303 303 303 303 302 302 302 302 301 300 300 299 299 298 298 298 298 298 298 297 297 297 297 296 296 295 295 294 294 293 293 292 292 292 291 291 292 292 292 292 291 291 291 291 292
322 322 321 321 320 319 319 319 318 317 317 316 316 315 315 314 314 313 313 312 311 310 309 309 308 307 307 307 307 308 307 307 306 305 304 304 304 304 303 302 302 301 301 301 301 301 301 301 300 299 299 299 298 298 298 298 298 298 298 298 298 297 296 295 294 294 294 293 293 292 292 292 292 292 292 292 292 292 292 292 293 293 293 293 293
322 321 320 320 319 318 317 317 317 316 316 316 316 315 315 315 314 314 313 312 311 310 309 308 308 307 307 307 307 307 306 306 305 304 304 303 303 303 302 301 301 301 301 300 300 300 300 299 299 298 298 298 298 298 298 298 298 298 298 298 297 297 296 294 293 293 292 292 292 291 291 291 291 292 293 293 294 294 295 295 296 296 297 296 295
321 320 320 319 318 317 316 316 316 316 315 315 315 315 315 314 314 314 313 313 311 310 309 308 308 307 307 306 306 306 306 305 304 303 302 302 302 302 301 301 301 300 300 299 299 298 298 298 298 297 297 298 298 298 298 298 298 298 298 298 297 296 295 294 293 292 292 291 291 291 291 291 292 292 293 294 295 297 299 300 300 300 300 300 300
321 320 319 318 317 316 315 315 315 315 315 314 314 314 314 314 314 313 313 313 312 310 309 308 308 307 306 306 306 305 305 304 303 302 302 301 301 301 301 300 300 299 298 298 297 297 297 297 296 296 296 297 298 298 298 298 298 298 297 297 296 295 294 293 293 292 292 291 291 291 291 291 292 293 293 294 296 297 299 302 303 304 304 304 305
322 320 319 317 316 315 315 315 315 314 314 314 313 313 313 313 313 313 313 313 312 311 309 309 308 307 306 306 306 305 304 304 303 302 302 301 301 301 300 300 299 298 297 296 296 295 295 295 295 295 295 296 297 297 297 297 297 297 297 296 295 295 294 294 293 293 292 292 291 291 291 291 292 293 294 295 297 298 300 302 305 307 308 308 308
322 320 318 317 316 315 315 314 314 313 313 313 313 313 312 313 313 314 314 314 313 312 310 309 308 307 307 306 306 305 304 304 303 302 301 300 300 299 299 298 297 296 295 294 294 294 294 294 294 294 294 295 295 295 295 295 296 296 296 295 295 294 294 294 294 293 293 293 292 292 292 292 292 293 295 297 298 301 303 306 308 309 311 310 309
323 321 319 317 315 314 314 314 313 313 313 312 312 312 312 313 313 314 314 314 313 313 311 310 308 307 307 307 306 306 305 304 303 301 300 299 298 298 297 297 296 295 293 292 292 292 292 292 292 293 293 293 293 293 293 293 293 294 294 294 294 294 294 294 294 294 294 294 294 293 292 292 293 294 296 298 300 303 305 308 311 312 312 311 310
323 322 319 316 314 313 313 313 312 312 312 311 311 311 312 312 313 313 313 313 313 312 311 310 309 308 307 307 306 306 305 304 302 301 299 298 297 296 296 295 294 293 292 291 291 291 291 291 291 291 291 291 291 291 291 291 291 292 292 292 292 293 293 294 295 295 296 295 294 293 292 292 292 293 295 298 301 304 306 309 312 313 312 310 309
323 322 319 315 313 313 312 312 311 311 310 310 310 311 311 311 312 312 312 312 312 312 311 310 309 308 308 307 306 305 304 303 302 300 299 297 296 295 294 293 293 292 292 291 291 290 290 289 289 289 289 289 289 289 289 290 290 290 290 290 291 292 293 295 295 296 296 295 294 293 292 291 291 293 295 297 301 304 307 310 313 314 312 310 309
323 321 318 315 313 312 311 311 310 309 309 309 310 310 310 311 311 311 312 312 312 311 310 310 309 308 308 307 306 305 304 302 301 300 298 296 295 294 293 292 292 292 291 290 290 289 288 287 287 287 287 287 287 287 288 288 289 289 289 289 290 292 293 295 295 296 295 295 294 293 291 291 290 292 294 296 300 303 307 310 313 314 313 311 311
322 320 317 315 313 312 310 310 309 309 309 309 309 309 309 310 310 311 311 311 311 310 310 309 309 308 308 307 306 305 303 302 301 299 297 295 294 293 292 291 290 289 289 288 288 287 286 286 285 285 285 285 284 285 286 286 287 288 288 289 290 291 293 294 295 295 295 294 294 293 292 291 290 291 293 296 299 302 306 309 312 313 313 313 312
321 318 316 314 313 311 310 309 309 308 308 308 308 309 309 309 310 310 310 310 310 309 309 309 308 307 307 306 305 304 303 302 300 298 296 294 292 291 290 288 287 286 286 286 285 285 284 284 284 283 283 283 283 284 284 284 285 286 287 288 289 290 292 293 295 295 295 294 293 293 292 291 290 290 292 295 299 302 305 307 311 313 313 313 313
319 317 315 314 312 311 310 309 308 308 308 308 308 309 309 309 309 309 309 309 308 308 308 308 307 306 306 305 304 303 302 301 299 297 295 293 291 290 289 287 285 284 284 283 283 282 282 282 281 281 281 282 282 283 283 283 283 284 285 286 288 289 290 291 293 294 294 294 294 293 292 292 291 290 291 294 298 301 304 307 310 312 312 313 313
318 316 315 313 312 311 310 309 308 308 308 308 308 309 309 309 309 309 308 308 307 307 307 307 306 305 305 304 303 302 301 300 299 297 295 293 291 289 287 286 284 283 282 280 279 279 279 278 278 278 278 279 280 281 281 281 281 282 283 283 285 286 287 289 292 293 293 293 294 293 293 292 292 291 292 294 296 299 302 306 309 311 312 312 313
317 315 314 313 312 311 310 309 308 308 308 308 308 308 308 308 308 308 308 307 307 307 306 306 305 304 303 303 302 301 300 299 298 297 295 293 290 288 286 284 282 281 279 278 277 276 276 275 275 275 275 276 277 278 279 279 280 281 281 282 283 284 285 287 289 291 291 291 293 293 292 292 292 292 292 294 296 299 302 305 307 309 311 312 312
316 315 313 312 312 311 310 309 309 308 308 308 308 308 308 308 308 307 307 307 307 306 306 305 305 304 303 302 301 300 300 299 298 297 295 293 290 288 286 284 282 280 278 277 276 275 274 273 273 273 273 274 275 276 277 277 278 279 280 281 281 282 284 285 287 288 289 290 291 292 292 291 291 291 292 294 295 298 301 304 306 309 311 312 312
315 314 313 312 312 311 310 309 309 309 309 308 308 308 308 307 307 307 307 307 306 306 306 305 305 304 303 302 301 300 299 298 297 296 294 292 290 288 285 283 281 279 278 277 277 275 273 272 272 272 273 273 274 275 275 276 277 277 278 279 279 280 282 284 285 287 288 288 289 291 290 290 290 290 291 293 294 297 300 303 306 309 311 312 312
314 313 313 312 311 310 309 309 309 309 309 308 308 308 307 307 307 307 306 306 306 306 306 305 305 304 303 302 302 300 300 298 297 295 293 291 289 287 285 283 280 278 276 276 276 276 274 273 273 273 273 273 274 275 275 276 276 276 277 277 277 278 281 282 283 285 286 286 288 290 289 288 289 290 291 292 294 297 300 303 306 309 311 312 312
313 313 312 312 311 309 309 308 309 309 309 308 308 308 308 307 307 307 306 306 306 306 306 305 305 304 304 303 302 301 300 299 297 295 293 291 289 288 286 284 281 278 276 275 275 275 275 274 274 274 274 275 276 276 276 276 276 277 277 277 277 278 280 280 281 283 285 285 287 289 288 287 288 289 291 292 294 296 299 302 305 308 311 311 311
312 312 311 311 310 309 308 309 309 309 309 308 308 308 308 307 307 307 307 307 307 307 306 306 305 304 304 303 302 301 300 299 298 296 293 291 288 286 284 283 281 279 278 276 275 275 275 276 277 277 278 278 278 277 277 277 278 278 278 278 277 278 278 278 279 282 284 284 286 287 286 286 287 289 290 292 294 296 299 302 305 308 310 311 310
312 311 311 310 309 309 309 309 309 309 309 309 309 308 308 308 307 307 307 307 307 307 306 306 305 305 304 303 302 301 300 299 298 296 294 291 289 286 284 282 280 279 278 277 276 276 276 277 278 279 280 279 279 278 278 278 278 279 278 278 277 277 277 277 279 281 282 283 285 286 286 286 287 288 289 291 293 295 298 301 304 308 310 310 309
311 311 310 309 309 309 309 309 309 309 309 309 309 308 308 308 308 307 307 307 307 307 306 306 305 305 304 303 302 301 300 299 297 296 294 292 290 288 286 283 281 280 279 279 279 278 278 278 279 279 279 278 278 277 277 277 277 277 277 277 277 277 277 278 279 280 280 282 284 285 285 286 287 287 288 290 291 294 297 300 304 307 309 308 309
310 310 309 309 308 308 309 309 309 309 309 309 308 308 308 308 308 308 307 307 307 307 306 306 305 305 304 303 302 301 300 298 297 295 294 292 291 289 287 285 283 280 279 278 279 279 279 279 279 278 278 278 278 278 278 278 278 277 277 276 276 277 277 278 278 279 280 281 283 284 284 285 286 286 287 288 289 292 295 298 303 306 307 307 307
310 309 308 308 308 308 308 309 309 309 309 309 309 309 308 308 308 308 308 307 307 307 306 306 305 305 304 303 302 301 299 298 297 295 294 292 291 289 288 286 284 282 279 277 277 277 277 277 278 277 277 277 278 278 279 279 279 278 278 277 277 277 278 278 279 279 280 281 282 282 283 284 284 284 285 286 288 290 293 297 301 304 304 305 305
309 308 308 308 308 308 308 308 309 309 309 309 309 309 309 309 308 308 308 307 307 307 306 306 305 304 304 302 301 300 299 298 297 295 294 293 291 290 289 288 286 284 282 280 279 277 276 276 276 275 276 276 276 277 277 278 278 278 278 277 277 277 277 278 278 278 279 280 280 280 281 281 281 282 283 284 286 288 291 295 299 301 301 302 303
308 307 307 308 308 308 308 308 308 309 309 309 309 308 308 308 308 308 307 307 307 307 306 305 305 304 303 302 301 300 299 297 296 295 294 293 292 290 289 288 287 285 284 283 281 280 278 276 275 275 275 275 275 275 275 275 275 276 276 275 275 275 275 276 276 276 277 277 277 278 278 278 278 279 280 281 283 285 289 293 297 299 298 299 300
307 307 307 308 308 308 308 308 309 309 309 309 309 309 309 308 308 308 307 307 307 306 306 305 304 304 303 302 301 299 298 297 295 294 293 292 291 290 289 287 286 285 284 283 282 281 279 278 277 276 276 275 275 275 275 275 275 274 274 274 274 274 274 274 274 275 275 275 275 274 274 274 275 276 277 279 281 283 287 292 295 296 295 296 298
307 307 307 308 308 308 308 309 309 309 309 309 309 309 309 308 308 308 307 307 306 306 306 305 304 303 302 301 300 299 298 296 295 294 293 292 291 290 289 287 286 286 285 284 283 282 281 280 279 278 278 277 277 276 276 276 275 275 274 274 274 273 273 273 273 273 272 272 271 270 270 270 271 272 274 276 278 281 286 290 292 292 292 294 294
307 307 307 308 308 308 308 309 309 309 309 309 309 309 308 308 308 308 307 307 306 306 305 305 304 303 302 301 300 299 298 297 295 294 293 292 291 290 289 288 288 287 286 285 284 284 283 282 282 281 281 281 280 280 279 279 278 277 277 276 275 275 274 273 272 271 270 269 267 267 267 267 267 269 272 274 276 280 284 288 289 289 290 292 288
307 307 307 308 308 308 308 309 309 309 309 309 309 308 308 308 308 307 307 307 306 306 305 304 304 303 302 301 301 299 298 297 296 295 294 293 292 291 290 290 289 289 288 288 287 287 286 285 285 285 284 284 284 283 283 282 281 280 279 279 278 277 276 274 272 270 268 266 264 263 263 264 265 267 269 271 274 278 283 285 286 286 288 288 280
307 307 307 308 308 308 309 309 309 308 308 308 308 308 308 307 307 306 306 306 306 306 305 305 304 304 303 302 301 300 298 297 296 295 295 294 293 293 292 292 291 290 290 289 289 288 288 287 287 286 286 286 285 285 285 284 283 282 281 280 279 278 276 275 272 269 266 263 261 260 260 262 263 264 266 269 272 276 280 281 282 284 285 280 270
307 307 307 308 308 308 308 308 308 308 308 308 308 307 307 307 307 306 306 306 305 305 305 305 304 304 303 302 301 300 299 298 297 296 295 295 295 294 294 293 293 292 291 290 290 289 289 288 288 288 287 287 286 286 285 285 284 282 281 280 278 277 275 273 271 268 264 260 258 257 258 259 260 262 264 268 271 274 276 277 279 281 278 267 260
307 307 308 308 308 308 308 308 308 308 308 307 307 307 307 307 307 306 306 306 305 305 305 304 304 304 303 302 301 300 299 298 297 297 297 297 297 296 296 295 294 293 293 292 291 291 290 290 289 289 288 288 287 287 286 285 283 282 281 279 277 275 273 271 268 266 262 257 254 254 255 256 258 260 263 266 269 271 272 274 276 273 263 253 254
307 307 307 308 308 308 308 308 308 307 307 307 307 307 307 307 307 307 306 306 306 305 305 304 304 303 303 302 301 299 298 298 298 298 298 298 298 297 297 296 295 295 294 294 293 293 292 291 291 290 289 288 287 286 285 284 282 281 279 277 275 273 271 269 266 263 258 254 251 251 252 254 256 257 260 263 266 267 269 272 270 258 243 240 241
307 307 307 307 307 307 307 307 307 307 307 307 307 307 307 307 307 307 307 306 306 305 305 305 304 303 302 300 300 299 299 299 300 299 299 299 299 298 298 297 296 296 295 295 295 294 294 293 292 291 290 288 287 285 284 282 280 279 277 276 274 271 270 268 264 259 255 251 249 248 249 250 250 252 257 261 262 263 266 264 253 237 226 219 207
307 307 307 307 307 307 307 307 307 307 307 307 307 307 307 307 307 307 307 306 306 306 305 304 303 301 300 299 299 300 300 300 301 300 300 300 300 300 299 298 298 297 297 296 296 295 295 294 293 292 290 288 286 284 282 281 280 279 278 275 273 270 267 264 260 255 250 246 244 243 242 243 246 251 255 255 257 259 256 242 228 217 200 183 177
306 307 307 307 307 307 307 307 307 307 307 307 307 307 307 307 307 307 306 306 306 305 305 303 301 300 299 299 300 300 301 301 301 301 302 302 302 301 301 300 299 298 298 297 297 296 295 295 293 291 289 286 285 284 283 282 281 279 276 273 270 266 262 258 254 249 243 239 237 236 237 241 245 248 247 248 251 247 230 213 206 192 171 164 166
306 306 306 307 307 307 307 307 307 306 306 306 306 307 307 307 306 306 306 305 305 304 303 301 300 299 299 300 300 301 301 302 302 302 303 303 303 302 302 301 300 299 299 298 298 297 296 294 291 289 287 286 286 285 284 283 280 277 273 270 266 262 257 252 247 242 237 234 233 234 236 238 237 235 237 240 234 217 200 192 182 168 158 155 156
306 306 306 307 307 307 307 306 306 306 306 306 306 306 306 306 306 305 305 304 303 302 301 300 299 300 300 301 301 301 302 303 303 304 304 304 304 303 302 301 301 301 300 300 299 297 295 292 289 289 288 288 287 286 284 282 279 275 271 267 262 257 252 245 240 236 233 230 229 228 226 222 220 223 226 218 201 188 179 171 162 155 151 147 146
306 306 306 307 307 306 306 306 306 306 306 306 306 306 306 305 305 304 304 303 302 301 300 300 300 301 301 302 302 302 303 304 304 305 305 305 304 304 303 303 302 302 301 300 298 295 293 292 291 291 291 290 289 287 284 282 280 275 270 264 257 249 241 233 227 223 219 216 213 208 204 203 206 208 198 185 176 169 163 158 154 148 143 141 141
306 306 306 306 306 306 305 305 305 305 305 305 305 305 305 304 304 303 302 301 300 299 299 300 301 302 302 302 303 303 304 304 305 305 305 305 305 304 304 304 304 302 301 298 296 294 294 294 294 293 293 291 291 289 287 284 279 272 263 253 243 233 223 212 204 198 195 192 189 187 189 191 189 181 172 166 161 157 154 151 146 141 139 140 136
306 306 306 306 305 305 305 305 305 305 305 305 305 304 303 303 302 301 300 299 299 299 300 301 302 302 303 303 303 304 305 305 306 306 305 305 305 305 305 305 304 301 298 296 294 294 295 295 295 295 294 293 293 293 291 286 278 266 252 237 222 208 195 186 181 178 176 175 176 178 178 173 166 162 158 156 153 150 147 141 137 137 137 131 106
306 306 305 305 305 305 305 305 305 305 305 304 303 303 302 301 300 299 299 299 300 300 301 302 302 303 303 303 304 304 305 305 306 305 306 306 306 306 306 305 302 298 295 294 295 295 295 295 295 294 293 293 295 296 294 288 275 254 231 212 195 183 176 172 170 169 168 168 168 165 161 157 154 152 151 150 148 143 139 136 135 132 122 101 79
306 305 305 305 305 305 305 305 305 304 304 303 302 301 300 300 300 300 300 300 301 301 302 302 303 303 303 304 304 305 305 305 305 306 306 307 307 306 305 302 298 294 293 294 295 295 295 295 294 292 291 291 292 294 293 282 249 208 188 179 174 170 168 166 164 163 161 159 155 152 149 148 147 147 147 145 141 138 137 138 135 125 104 84 68
306 306 306 306 305 305 305 304 304 303 302 302 301 301 300 300 300 301 301 301 302 302 303 303 303 303 303 303 304 304 304 305 306 306 307 307 307 305 302 297 293 292 293 294 294 295 294 294 293 291 289 287 285 281 262 183 158 155 156 158 159 158 158 156 154 152 150 147 145 144 143 143 144 144 142 139 136 137 138 137 131 120 101 74 52
306 306 306 305 305 305 304 303 302 302 302 301 301 301 301 302 302 302 302 303 303 303 303 303 303 303 303 303 304 303 304 305 307 307 307 307 305 302 297 292 291 293 292 292 293 294 292 292 293 291 286 279 261 198 149 140 139 141 144 146 146 146 146 144 143 142 142 141 140 140 140 141 141 140 137 135 136 138 137 132 127 121 98 63 41
306 306 305 305 304 304 303 302 302 302 302 302 302 302 303 303 303 304 304 304 304 304 304 304 303 303 303 303 303 304 305 307 307 307 306 304 300 295 290 289 291 291 289 289 290 290 289 291 295 289 265 163 143 140 136 135 136 138 139 139 139 139 138 138 138 138 138 137 137 138 138 138 137 135 135 136 137 136 132 129 128 117 79 51 36
306 306 305 305 304 304 303 303 303 303 303 303 304 304 304 304 305 305 305 305 306 306 305 304 303 303 302 303 304 305 307 307 306 305 303 299 293 288 287 287 287 285 284 283 283 282 282 283 273 152 126 127 133 135 134 134 135 135 136 136 135 135 135 135 136 136 135 135 135 136 136 135 134 134 134 135 134 131 130 128 118 90 59 41 26
Height
5651 5646 5642 5637 5633 5629 5626 5622 5618 5614 5610 5606 5602 5598 5594 5591 5587 5584 5580 5577 5573 5570 5567 5563 5560 5556 5553 5550 5547 5544 5541 5538 5535 5532 5529 5527 5524 5521 5518 5515 5513 5510 5508 5506 5503 5501 5499 5497 5495 5493 5491 5488 5486 5485 5483 5481 5479 5477 5475 5474 5472 5470 5469 5467 5465 5464 5462 5460 5459 5457 5455 5453 5451 5450 5448 5447 5445 5444 5442 5441 5439 5437 5435 5433 5431
5646 5641 5637 5633 5629 5625 5621 5617 5613 5610 5606 5602 5597 5593 5589 5586 5582 5579 5575 5572 5568 5564 5561 5558 5555 5551 5548 5545 5541 5538 5535 5532 5529 5526 5523 5521 5518 5515 5512 5510 5507 5504 5502 5500 5497 5495 5493 5491 5489 5487 5485 5483 5481 5479 5477 5475 5473 5471 5470 5468 5466 5465 5463 5461 5459 5458 5456 5455 5453 5451 5449 5447 5446 5444 5442 5440 5438 5437 5435 5434 5432 5431 5429 5427 5424
5640 5636 5632 5628 5624 5620 5616 5612 5608 5604 5601 5597 5592 5588 5585 5581 5577 5574 5570 5566 5563 5559 5555 5552 5549 5546 5542 5539 5535 5532 5529 5526 5523 5520 5518 5515 5512 5509 5506 5504 5501 5498 5496 5494 5491 5489 5487 5485 5483 5481 5479 5477 5475 5473 5471 5469 5468 5466 5464 5462 5461 5459 5457 5456 5454 5452 5450 5449 5447 5445 5444 5442 5440 5438 5437 5435 5433 5431 5429 5427 5425 5424 5422 5420 5418
5635 5631 5627 5623 5619 5615 5611 5607 5603 5599 5595 5591 5587 5583 5579 5576 5572 5568 5565 5561 5557 5553 5549 5546 5543 5539 5536 5533 5529 5526 5523 5520 5516 5514 5511 5509 5506 5503 5500 5497 5495 5492 5490 5488 5485 5483 5481 5479 5477 5475 5473 5471 5469 5467 5465 5464 5462 5460 5458 5456 5455 5453 5452 5450 5448 5447 5445 5443 5441 5439 5437 5436 5434 5432 5430 5428 5426 5424 5423 5421 5419 5416 5415 5413 5411
5630 5626 5622 5618 5614 5610 5606 5602 5598 5594 5590 5586 5582 5578 5574 5570 5566 5562 5559 5555 5551 5547 5544 5540 5536 5533 5530 5526 5523 5519 5516 5513 5509 5506 5504 5501 5499 5496 5494 5491 5488 5486 5483 5481 5479 5477 5475 5473 5471 5469 5467 5465 5463 5461 5459 5458 5456 5454 5452 5450 5449 5447 5446 5444 5442 5441 5439 5437 5435 5434 5432 5430 5428 5427 5425 5422 5420 5418 5415 5414 5412 5409 5407 5405 5403
5625 5621 5617 5613 5609 5605 5600 5596 5592 5588 5584 5580 5576 5572 5568 5564 5560 5556 5553 5549 5545 5541 5538 5534 5530 5527 5523 5520 5516 5513 5509 5506 5503 5499 5496 5494 5491 5489 5487 5484 5481 5479 5477 5474 5472 5470 5468 5466 5464 5462 5460 5458 5457 5455 5453 5451 5450 5448 5446 5444 5443 5441 5440 5438 5436 5435 5433 5431 5430 5428 5426 5424 5422 5421 5419 5417 5415 5412 5409 5406 5404 5402 5400 5398 5395
5620 5616 5612 5608 5603 5599 5595 5591 5586 5582 5578 5574 5570 5566 5562 5558 5554 5550 5547 5543 5539 5535 5531 5528 5524 5520 5516 5513 5509 5506 5502 5499 5496 5493 5489 5486 5484 5482 5479 5477 5474 5472 5470 5468 5465 5463 5461 5459 5457 5456 5454 5452 5450 5449 5447 5445 5444 5442 5440 5439 5437 5435 5434 5432 5431 5429 5427 5425 5424 5422 5420 5419 5417 5415 5413 5412 5410 5408 5406 5402 5398 5395 5393 5391 5389
5615 5611 5607 5602 5598 5593 5589 5585 5580 5576 5572 5568 5564 5560 5556 5552 5548 5544 5540 5536 5532 5529 5525 5521 5517 5513 5509 5506 5502 5499 5495 5492 5489 5485 5482 5479 5476 5474 5472 5469 5467 5465 5463 5460 5458 5456 5454 5453 5451 5449 5447 5445 5444 5442 5441 5439 5437 5436 5434 5433 5431 5430 5428 5426 5425 5423 5421 5419 5418 5416 5415 5413 5411 5409 5408 5406 5404 5402 5400 5398 5394 5390 5387 5384 5383
5610 5606 5601 5596 5592 5587 5583 5579 5574 5570 5566 5562 5558 5554 5550 5546 5542 5538 5534 5530 5526 5522 5518 5514 5510 5506 5502 5498 5495 5491 5488 5484 5481 5478 5475 5472 5469 5466 5464 5462 5460 5458 5455 5453 5451 5449 5447 5446 5444 5442 5441 5439 5437 5436 5434 5433 5431 5430 5428 5427 5425 5424 5422 5420 5419 5417 5415 5413 5412 5410 5409 5408 5406 5404 5402 5400 5398 5396 5394 5391 5388 5385 5382 5377 5374
5605 5600 5595 5590 5586 5581 5577 5572 5568 5564 5560 5556 5552 5548 5544 5539 5535 5531 5527 5523 5519 5515 5511 5507 5503 5499 5495 5491 5487 5484 5480 5477 5474 5471 5468 5465 5462 5459 5457 5454 5452 5450 5448 5446 5444 5442 5440 5439 5437 5436 5434 5432 5431 5429 5428 5427 5425 5423 5422 5420 5419 5417 5416 5414 5413 5411 5409 5408 5406 5404 5402 5401 5400 5398 5396 5394 5392 5390 5388 5386 5382 5379 5376 5372 5367
5598 5594 5589 5584 5580 5575 5571 5566 5562 5558 5554 5550 5546 5541 5537 5533 5528 5524 5520 5515 5511 5507 5503 5499 5495 5491 5488 5484 5480 5476 5473 5470 5467 5463 5460 5457 5454 5452 5449 5447 5445 5442 5441 5439 5437 5435 5433 5432 5430 5429 5427 5426 5424 5423 5422 5420 5419 5417 5416 5414 5413 5411 5410 5408 5407 5405 5403 5402 5400 5398 5397 5395 5394 5393 5391 5388 5386 5384 5382 5379 5377 5373 5370 5367 5363
5591 5587 5583 5578 5573 5569 5564 5560 5556 5551 5547 5543 5539 5535 5530 5526 5522 5517 5513 5508 5504 5500 5495 5492 5488 5484 5480 5476 5472 5469 5465 5462 5459 5456 5452 5450 5447 5444 5441 5439 5437 5435 5433 5431 5429 5428 5426 5424 5423 5422 5421 5419 5418 5416 5415 5414 5412 5411 5410 5408 5407 5405 5403 5402 5401 5399 5397 5396 5394 5393 5391 5389 5388 5387 5385 5383 5380 5378 5376 5373 5370 5367 5363 5360 5357
5585 5580 5576 5571 5567 5562 5558 5553 5549 5544 5540 5536 5532 5528 5523 5519 5514 5510 5506 5501 5496 5492 5487 5484 5480 5476 5472 5469 5465 5461 5457 5454 5451 5448 5444 5441 5439 5437 5434 5431 5428 5426 5425 5423 5421 5420 5418 5417 5416 5415 5414 5412 5411 5410 5408 5407 5406 5405 5403 5402 5400 5399 5397 5396 5394 5393 5391 5390 5388 5386 5385 5384 5382 5380 5379 5377 5375 5372 5370 5367 5364 5361 5357 5353 5350
5578 5573 5569 5564 5560 5556 5551 5546 5542 5537 5533 5529 5525 5521 5516 5512 5507 5502 5498 5493 5488 5484 5480 5476 5472 5468 5464 5461 5457 5453 5448 5446 5443 5439 5436 5433 5430 5429 5427 5424 5421 5418 5416 5415 5414 5412 5411 5410 5408 5407 5406 5405 5404 5403 5402 5400 5399 5398 5397 5395 5394 5393 5391 5389 5388 5387 5385 5384 5382 5380 5379 5378 5376 5375 5373 5371 5369 5367 5365 5362 5359 5356 5351 5347 5342
5571 5566 5562 5557 5553 5548 5544 5539 5535 5530 5526 5521 5517 5513 5508 5504 5499 5495 5490 5485 5481 5476 5472 5468 5464 5459 5456 5453 5449 5445 5440 5437 5435 5431 5427 5424 5421 5420 5418 5417 5414 5411 5409 5407 5406 5405 5403 5402 5401 5400 5399 5398 5397 5396 5395 5393 5392 5391 5390 5389 5387 5386 5385 5383 5382 5381 5379 5378 5376 5374 5373 5371 5370 5369 5367 5365 5363 5360 5358 5356 5353 5351 5347 5342 5337
5563 5558 5554 5550 5545 5541 5536 5532 5527 5523 5518 5514 5510 5505 5500 5496 5491 5487 5483 5478 5473 5469 5464 5460 5455 5451 5447 5444 5441 5437 5431 5428 5426 5423 5419 5416 5413 5411 5410 5408 5406 5404 5402 5399 5398 5397 5396 5394 5393 5392 5391 5390 5389 5388 5387 5386 5385 5384 5383 5382 5381 5380 5378 5377 5375 5374 5373 5372 5370 5368 5367 5365 5364 5362 5361 5360 5357 5355 5352 5350 5347 5345 5342 5338 5333
5555 5550 5546 5542 5537 5533 5529 5524 5520 5515 5511 5506 5502 5497 5492 5488 5483 5479 5475 5470 5465 5460 5456 5451 5447 5443 5439 5435 5431 5428 5423 5419 5417 5415 5411 5407 5404 5403 5401 5399 5398 5396 5394 5392 5390 5389 5388 5386 5385 5384 5383 5382 5381 5381 5380 5379 5378 5376 5375 5375 5374 5372 5372 5371 5369 5368 5366 5365 5364 5362 5361 5359 5357 5356 5354 5353 5351 5349 5347 5344 5341 5338 5335 5332 5329
5547 5542 5538 5533 5529 5525 5521 5516 5512 5508 5503 5498 5493 5489 5484 5479 5474 5470 5466 5461 5457 5452 5447 5443 5438 5433 5430 5425 5422 5419 5415 5410 5407 5405 5402 5398 5395 5394 5392 5391 5389 5388 5386 5384 5382 5381 5380 5378 5377 5377 5376 5375 5374 5373 5372 5371 5370 5369 5368 5367 5366 5365 5365 5364 5363 5361 5360 5359 5357 5356 5355 5353 5351 5349 5348 5347 5345 5343 5341 5339 5336 5333 5329 5326 5323
5539 5534 5530 5525 5521 5517 5513 5508 5504 5499 5495 5490 5485 5480 5476 5470 5466 5461 5457 5452 5448 5443 5438 5434 5429 5424 5420 5416 5412 5409 5406 5401 5397 5395 5393 5389 5386 5385 5383 5382 5381 5379 5378 5376 5374 5373 5371 5370 5369 5368 5367 5367 5366 5365 5364 5363 5363 5362 5360 5360 5359 5357 5357 5357 5356 5354 5353 5352 5351 5349 5348 5347 5345 5343 5342 5340 5339 5337 5335 5333 5330 5327 5324 5319 5316
5531 5526 5522 5517 5513 5508 5504 5500 5496 5491 5486 5481 5476 5471 5467 5462 5457 5452 5447 5443 5438 5434 5429 5425 5420 5415 5410 5406 5402 5399 5396 5393 5389 5385 5383 5380 5378 5376 5374 5373 5372 5370 5369 5368 5366 5364 5363 5361 5360 5360 5359 5358 5357 5356 5356 5355 5355 5354 5353 5352 5351 5350 5350 5349 5348 5347 5346 5345 5344 5342 5341 5340 5339 5337 5336 5334 5333 5331 5329 5327 5324 5321 5318 5314 5310
5523 5518 5514 5509 5505 5500 5495 5491 5487 5482 5477 5473 5467 5462 5457 5453 5448 5443 5438 5434 5429 5424 5419 5415 5410 5405 5400 5396 5392 5389 5386 5383 5380 5376 5373 5371 5369 5367 5365 5364 5363 5361 5360 5359 5358 5356 5354 5352 5351 5351 5351 5350 5349 5348 5347 5347 5346 5346 5345 5344 5343 5343 5342 5341 5340 5339 5338 5337 5336 5335 5334 5333 5332 5330 5329 5328 5326 5325 5323 5321 5318 5315 5312 5308 5305
5514 5509 5505 5501 5496 5492 5487 5482 5478 5473 5468 5463 5458 5453 5448 5442 5438 5433 5428 5424 5419 5414 5410 5405 5401 5396 5391 5386 5382 5379 5376 5373 5371 5368 5364 5362 5359 5357 5356 5354 5353 5352 5351 5350 5349 5347 5345 5343 5343 5342 5342 5341 5340 5339 5339 5338 5337 5337 5336 5335 5335 5335 5334 5333 5332 5331 5331 5330 5329 5328 5327 5326 5325 5323 5322 5321 5320 5318 5317 5314 5312 5309 5306 5302 5299
5506 5501 5496 5492 5488 5483 5478 5473 5468 5463 5458 5454 5448 5443 5438 5432 5427 5422 5418 5413 5409 5404 5399 5395 5391 5386 5382 5377 5373 5369 5366 5363 5361 5358 5356 5353 5351 5348 5347 5345 5343 5343 5342 5341 5339 5338 5336 5335 5334 5333 5333 5332 5331 5330 5330 5329 5328 5328 5327 5327 5327 5327 5326 5326 5325 5324 5323 5322 5322 5320 5319 5318 5318 5316 5315 5314 5313 5312 5310 5308 5306 5303 5300 5297 5293
5497 5492 5488 5483 5478 5473 5468 5463 5458 5453 5448 5443 5438 5433 5428 5422 5417 5412 5407 5403 5399 5394 5389 5385 5381 5377 5373 5369 5364 5360 5356 5353 5351 5349 5346 5344 5342 5340 5338 5336 5334 5333 5332 5331 5330 5328 5327 5326 5325 5324 5323 5322 5321 5320 5320 5320 5319 5319 5319 5319 5318 5318 5318 5318 5317 5317 5316 5315 5314 5313 5311 5311 5311 5310 5308 5307 5306 5305 5303 5301 5299 5297 5295 5291 5287
5488 5483 5478 5473 5469 5464 5458 5453 5448 5443 5438 5433 5428 5423 5418 5412 5407 5402 5397 5392 5388 5384 5379 5375 5370 5367 5363 5359 5355 5351 5347 5344 5341 5339 5337 5334 5332 5330 5328 5326 5325 5323 5323 5322 5320 5319 5318 5317 5316 5315 5314 5313 5312 5311 5311 5311 5311 5310 5310 5310 5310 5310 5310 5310 5309 5309 5308 5307 5307 5306 5304 5303 5303 5303 5302 5301 5300 5299 5298 5295 5293 5291 5289 5286 5282
5479 5474 5469 5464 5459 5454 5449 5443 5438 5432 5427 5421 5416 5411 5407 5402 5397 5391 5387 5382 5378 5373 5369 5365 5361 5357 5353 5350 5346 5343 5339 5335 5332 5329 5327 5325 5323 5321 5319 5317 5315 5314 5313 5312 5311 5310 5309 5308 5307 5306 5305 5304 5303 5302 5302 5302 5302 5302 5302 5302 5302 5301 5301 5301 5301 5301 5300 5300 5299 5298 5297 5296 5296 5296 5295 5295 5294 5293 5292 5290 5288 5285 5284 5281 5278
5470 5465 5460 5455 5450 5445 5440 5434 5428 5422 5416 5410 5405 5400 5395 5390 5386 5381 5376 5372 5368 5363 5359 5355 5351 5348 5344 5340 5336 5333 5330 5326 5323 5320 5317 5315 5313 5311 5309 5308 5306 5305 5303 5303 5302 5301 5300 5299 5298 5296 5295 5295 5294 5293 5293 5292 5292 5292 5292 5292 5293 5292 5292 5292 5292 5292 5292 5292 5291 5290 5289 5289 5289 5288 5288 5288 5287 5287 5287 5285 5283 5281 5278 5277 5274
5461 5456 5451 5446 5440 5435 5430 5425 5419 5412 5406 5399 5394 5389 5385 5379 5374 5369 5365 5361 5358 5354 5350 5346 5341 5338 5334 5331 5327 5324 5320 5317 5313 5311 5308 5306 5304 5301 5300 5298 5296 5295 5294 5293 5292 5291 5290 5289 5287 5286 5285 5285 5284 5284 5283 5283 5283 5282 5282 5283 5283 5283 5283 5283 5283 5283 5283 5283 5282 5282 5281 5281 5281 5281 5281 5281 5281 5281 5281 5280 5278 5276 5274 5272 5270
5451 5446 5441 5436 5430 5425 5420 5414 5409 5403 5397 5390 5383 5378 5374 5370 5365 5359 5354 5350 5347 5343 5340 5337 5333 5328 5325 5321 5318 5315 5312 5308 5304 5302 5299 5297 5295 5293 5290 5288 5286 5285 5284 5283 5282 5281 5280 5278 5277 5276 5275 5275 5274 5273 5273 5273 5273 5272 5272 5272 5272 5272 5273 5273 5273 5273 5274 5274 5274 5273 5273 5274 5273 5274 5274 5274 5274 5274 5274 5274 5273 5271 5269 5268 5266
5441 5436 5431 5425 5420 5414 5408 5402 5397 5391 5386 5381 5374 5366 5361 5357 5355 5350 5345 5340 5336 5333 5329 5326 5323 5319 5316 5312 5308 5305 5303 5300 5296 5293 5290 5288 5286 5283 5281 5278 5276 5275 5273 5272 5272 5270 5269 5267 5266 5265 5264 5264 5263 5263 5262 5262 5262 5262 5261 5261 5261 5262 5262 5263 5263 5264 5264 5264 5265 5265 5265 5266 5266 5267 5267 5268 5267 5267 5268 5268 5267 5266 5264 5263 5262
5431 5426 5420 5414 5409 5403 5397 5391 5385 5380 5375 5370 5365 5359 5351 5344 5341 5338 5335 5330 5326 5322 5319 5315 5312 5309 5306 5303 5299 5295 5292 5290 5288 5284 5281 5279 5276 5273 5270 5268 5266 5264 5263 5262 5261 5259 5257 5256 5255 5254 5253 5252 5252 5252 5251 5251 5251 5250 5250 5249 5250 5250 5251 5252 5253 5254 5255 5255 5256 5257 5257 5258 5259 5260 5261 5261 5261 5261 5262 5262 5261 5260 5260 5259 5257
5421 5416 5410 5404 5398 5392 5386 5381 5375 5370 5364 5359 5354 5350 5344 5337 5330 5326 5322 5319 5316 5312 5309 5306 5302 5299 5295 5293 5290 5286 5283 5280 5277 5274 5272 5269 5266 5263 5260 5258 5256 5254 5253 5251 5250 5249 5247 5246 5245 5243 5242 5242 5242 5241 5241 5241 5240 5239 5239 5238 5239 5239 5240 5242 5243 5243 5245 5246 5247 5248 5249 5251 5252 5253 5254 5255 5255 5255 5255 5256 5255 5255 5255 5254 5253
5411 5405 5399 5393 5387 5381 5375 5370 5364 5359 5354 5349 5343 5338 5334 5330 5324 5317 5312 5307 5304 5301 5298 5295 5292 5289 5285 5282 5280 5277 5273 5270 5267 5264 5261 5259 5256 5254 5251 5249 5247 5245 5244 5243 5241 5240 5239 5238 5236 5235 5234 5233 5233 5232 5232 5231 5231 5230 5229 5229 5229 5229 5230 5232 5233 5234 5235 5236 5238 5240 5242 5244 5246 5247 5248 5249 5250 5250 5250 5250 5250 5250 5250 5249 5249
5400 5394 5388 5382 5376 5370 5364 5359 5353 5348 5343 5338 5334 5329 5324 5320 5316 5311 5306 5300 5294 5290 5287 5284 5282 5279 5276 5272 5269 5266 5263 5260 5257 5254 5252 5250 5248 5246 5244 5242 5240 5238 5237 5235 5234 5232 5231 5230 5228 5227 5226 5225 5224 5224 5223 5223 5222 5222 5221 5221 5221 5221 5221 5223 5224 5225 5226 5228 5230 5232 5235 5237 5239 5241 5241 5243 5244 5244 5244 5245 5245 5245 5245 5245 5245
5388 5382 5376 5370 5365 5359 5354 5348 5343 5338 5333 5328 5323 5319 5315 5310 5306 5302 5298 5294 5288 5283 5277 5273 5270 5268 5265 5262 5258 5256 5253 5251 5248 5246 5245 5243 5241 5239 5237 5235 5233 5231 5229 5228 5226 5225 5223 5222 5221 5219 5218 5217 5216 5216 5215 5215 5214 5214 5213 5213 5213 5213 5213 5214 5215 5216 5218 5220 5223 5225 5228 5231 5233 5234 5235 5237 5238 5239 5239 5240 5241 5241 5241 5241 5242
5376 5370 5364 5358 5353 5347 5342 5338 5333 5328 5323 5318 5313 5309 5304 5300 5296 5292 5288 5284 5280 5276 5271 5265 5261 5258 5256 5253 5250 5247 5245 5243 5241 5240 5238 5236 5234 5232 5230 5228 5226 5224 5222 5220 5219 5217 5216 5215 5214 5212 5210 5209 5208 5207 5207 5206 5206 5205 5205 5205 5205 5205 5206 5207 5208 5209 5211 5213 5216 5219 5222 5225 5227 5229 5230 5232 5233 5234 5234 5236 5236 5237 5238 5238 5239
5364 5358 5352 5346 5341 5336 5331 5326 5322 5317 5313 5308 5304 5299 5294 5290 5286 5282 5278 5274 5270 5266 5262 5258 5253 5249 5246 5244 5242 5240 5238 5236 5235 5233 5232 5230 5228 5226 5224 5222 5219 5217 5215 5213 5211 5210 5208 5207 5206 5205 5203 5202 5200 5199 5199 5198 5198 5198 5198 5198 5198 5198 5199 5200 5201 5203 5205 5208 5211 5214 5216 5219 5221 5223 5225 5226 5228 5229 5230 5232 5232 5233 5235 5236 5237
5353 5347 5342 5336 5330 5325 5320 5316 5311 5307 5302 5298 5294 5289 5285 5280 5276 5272 5268 5264 5260 5256 5253 5249 5246 5242 5239 5237 5236 5234 5232 5230 5228 5227 5225 5223 5221 5219 5217 5215 5213 5210 5208 5206 5204 5203 5201 5199 5198 5197 5196 5194 5193 5192 5191 5191 5191 5191 5191 5191 5191 5191 5193 5194 5196 5197 5200 5202 5205 5208 5211 5214 5217 5219 5220 5222 5223 5225 5227 5228 5229 5230 5232 5234 5235
5340 5335 5330 5325 5320 5315 5311 5306 5301 5297 5292 5288 5284 5279 5275 5271 5266 5262 5258 5254 5250 5247 5244 5241 5238 5236 5234 5232 5230 5228 5226 5224 5222 5220 5218 5216 5214 5212 5210 5208 5206 5204 5202 5200 5198 5196 5194 5192 5191 5189 5188 5187 5186 5185 5184 5184 5184 5184 5184 5184 5185 5186 5187 5189 5190 5193 5195 5198 5201 5204 5207 5210 5212 5214 5216 5218 5220 5221 5223 5225 5227 5228 5230 5232 5234
5328 5323 5318 5314 5309 5305 5301 5296 5291 5287 5283 5278 5274 5270 5265 5261 5257 5253 5249 5245 5241 5239 5236 5234 5232 5230 5228 5226 5224 5222 5220 5218 5215 5213 5211 5210 5208 5206 5203 5201 5199 5197 5195 5193 5191 5189 5187 5185 5183 5182 5181 5180 5179 5179 5178 5178 5178 5178 5178 5178 5179 5180 5182 5183 5186 5188 5191 5194 5197 5200 5203 5205 5208 5210 5212 5214 5216 5218 5220 5223 5225 5227 5229 5231 5233
5316 5311 5307 5303 5299 5294 5290 5285 5281 5277 5273 5268 5264 5260 5256 5252 5248 5244 5240 5237 5234 5232 5230 5228 5226 5224 5223 5220 5218 5216 5214 5212 5209 5207 5205 5203 5201 5199 5196 5194 5192 5190 5188 5186 5184 5182 5180 5178 5177 5176 5175 5174 5173 5173 5173 5172 5172 5172 5172 5173 5174 5175 5177 5179 5181 5184 5187 5190 5193 5196 5199 5202 5204 5207 5209 5212 5214 5216 5219 5221 5223 5226 5228 5230 5232
5305 5301 5296 5292 5288 5284 5279 5275 5271 5266 5262 5258 5255 5251 5247 5243 5240 5236 5233 5230 5228 5226 5224 5222 5220 5219 5217 5214 5212 5210 5208 5206 5203 5201 5198 5196 5194 5192 5190 5188 5185 5183 5181 5179 5177 5175 5174 5173 5172 5171 5170 5169 5168 5168 5167 5167 5167 5167 5167 5168 5170 5171 5173 5175 5177 5180 5184 5187 5190 5193 5196 5199 5202 5204 5207 5209 5212 5215 5217 5220 5223 5225 5227 5229 5231
5295 5290 5286 5282 5278 5274 5269 5265 5260 5256 5252 5248 5245 5241 5238 5235 5232 5229 5226 5224 5222 5220 5218 5216 5214 5212 5210 5208 5206 5204 5202 5200 5197 5195 5192 5190 5187 5185 5183 5181 5179 5176 5174 5172 5171 5170 5169 5168 5167 5166 5165 5164 5163 5163 5163 5162 5162 5163 5164 5165 5166 5167 5169 5172 5174 5177 5181 5184 5187 5191 5194 5197 5200 5202 5205 5208 5211 5214 5217 5220 5222 5225 5227 5229 5230
5284 5280 5275 5271 5267 5263 5259 5255 5251 5247 5243 5239 5236 5233 5230 5227 5224 5222 5220 5218 5216 5215 5213 5211 5209 5206 5204 5202 5200 5198 5195 5193 5191 5189 5186 5184 5181 5179 5177 5175 5173 5170 5169 5167 5166 5165 5165 5164 5163 5163 5162 5161 5160 5159 5159 5159 5159 5160 5160 5162 5163 5165 5167 5170 5172 5176 5179 5182 5186 5189 5192 5195 5198 5201 5204 5207 5211 5214 5217 5220 5222 5225 5227 5229 5230
5274 5269 5265 5260 5256 5253 5249 5246 5242 5238 5234 5231 5228 5226 5223 5221 5218 5216 5214 5212 5210 5209 5207 5205 5203 5200 5198 5195 5193 5191 5189 5187 5185 5182 5180 5178 5175 5173 5171 5169 5167 5165 5164 5163 5163 5162 5162 5161 5160 5159 5159 5158 5157 5157 5157 5157 5157 5158 5159 5160 5162 5164 5166 5169 5172 5175 5178 5181 5185 5188 5191 5194 5198 5201 5204 5207 5211 5214 5217 5220 5223 5225 5227 5228 5229
5263 5259 5255 5250 5246 5243 5239 5236 5233 5230 5226 5224 5221 5219 5216 5214 5213 5210 5208 5207 5205 5202 5201 5199 5196 5194 5192 5189 5187 5185 5183 5181 5178 5176 5174 5172 5170 5167 5166 5164 5163 5161 5161 5160 5160 5159 5159 5158 5158 5157 5157 5156 5156 5156 5156 5156 5156 5157 5158 5159 5161 5164 5166 5169 5172 5175 5178 5181 5184 5188 5191 5194 5198 5201 5205 5208 5211 5215 5218 5221 5223 5225 5227 5228 5229
5253 5249 5245 5241 5238 5234 5231 5228 5225 5222 5219 5217 5215 5213 5210 5208 5207 5205 5203 5201 5199 5196 5194 5192 5190 5187 5185 5183 5181 5179 5177 5175 5173 5170 5168 5166 5164 5163 5161 5160 5159 5159 5158 5158 5157 5157 5157 5157 5156 5156 5155 5155 5155 5155 5155 5155 5156 5157 5158 5159 5162 5164 5167 5169 5172 5175 5178 5181 5185 5188 5192 5195 5199 5202 5206 5209 5213 5216 5219 5221 5223 5225 5226 5227 5228
5244 5240 5236 5233 5230 5226 5223 5220 5218 5215 5213 5210 5208 5206 5204 5203 5201 5199 5196 5194 5192 5190 5187 5185 5183 5181 5179 5177 5175 5173 5171 5169 5167 5165 5163 5162 5160 5159 5158 5157 5157 5156 5156 5156 5155 5156 5155 5155 5155 5155 5155 5155 5155 5155 5155 5156 5156 5157 5158 5160 5162 5164 5167 5170 5173 5176 5179 5183 5186 5190 5193 5197 5200 5204 5207 5211 5214 5217 5220 5222 5224 5225 5226 5227 5227
5235 5232 5228 5225 5222 5219 5217 5214 5211 5209 5207 5204 5202 5200 5198 5196 5194 5192 5190 5187 5185 5183 5181 5179 5177 5174 5172 5170 5169 5167 5165 5163 5162 5160 5159 5157 5156 5156 5155 5155 5155 5155 5154 5154 5154 5154 5154 5154 5154 5154 5154 5155 5155 5155 5156 5156 5157 5158 5159 5161 5163 5166 5168 5171 5174 5178 5181 5184 5188 5192 5195 5199 5202 5206 5209 5212 5215 5218 5220 5222 5224 5225 5226 5226 5227
5227 5224 5221 5218 5215 5213 5210 5208 5205 5203 5201 5199 5196 5194 5191 5190 5188 5185 5183 5181 5179 5176 5174 5172 5170 5168 5166 5164 5163 5162 5160 5159 5157 5156 5155 5154 5153 5153 5153 5153 5153 5153 5153 5153 5153 5154 5154 5154 5154 5154 5155 5155 5155 5156 5157 5157 5158 5160 5161 5163 5165 5168 5171 5173 5177 5180 5183 5187 5190 5194 5197 5201 5204 5208 5211 5214 5216 5219 5221 5222 5224 5225 5225 5226 5226
5219 5217 5214 5211 5209 5206 5204 5201 5199 5197 5195 5193 5190 5188 5185 5183 5181 5179 5177 5174 5172 5170 5168 5166 5164 5162 5161 5159 5158 5157 5155 5154 5153 5152 5152 5151 5151 5151 5151 5152 5152 5152 5152 5153 5153 5153 5153 5154 5154 5154 5155 5156 5156 5157 5158 5159 5160 5162 5164 5166 5168 5171 5173 5176 5180 5183 5186 5189 5193 5196 5200 5203 5206 5209 5212 5215 5218 5220 5221 5222 5224 5225 5225 5226 5226